| time (UTC) | temp C | wind direction | speed KPH | gust KPH | rain 1hr cm | rain 24hr cm | rain mn cm | humidity % | barometer mb |
| 20260508131613 | 12 | 284 | 16.1 | 22.5 | 0.00 | 1.47 | 0.00 | 65 | 1002.9 |
| 20260508130053 | 12 | 274 | 8.0 | 16.1 | 0.00 | 1.47 | 0.00 | 68 | 1002.8 |
| 20260508124554 | 12 | 13 | 0.0 | 8.0 | 0.00 | 1.47 | 0.00 | 72 | 1002.7 |
| 20260508123105 | 11 | 0 | 3.2 | 6.4 | 0.00 | 1.47 | 0.00 | 75 | 1002.8 |
| 20260508121602 | 10 | 281 | 4.8 | 9.7 | 0.00 | 1.47 | 0.00 | 78 | 1003.0 |
| 20260508120059 | 9 | 0 | 0.0 | 8.0 | 0.00 | 1.47 | 0.00 | 80 | 1003.1 |
| 20260508114558 | 8 | 271 | 4.8 | 11.3 | 0.00 | 1.47 | 0.00 | 81 | 1003.0 |
| 20260508113102 | 8 | 254 | 8.0 | 14.5 | 0.00 | 1.47 | 0.00 | 83 | 1003.1 |
| 20260508111602 | 8 | 291 | 4.8 | 11.3 | 0.00 | 1.47 | 0.00 | 86 | 1003.1 |
| 20260508104550 | 7 | 300 | 6.4 | 11.3 | 0.00 | 1.47 | 0.00 | 88 | 1003.1 |
| 20260508103052 | 7 | 290 | 3.2 | 9.7 | 0.00 | 1.47 | 0.00 | 89 | 1002.9 |
| 20260508101552 | 6 | 273 | 3.2 | 9.7 | 0.00 | 1.47 | 0.00 | 89 | 1002.7 |
| 20260508100054 | 6 | 327 | 1.6 | 4.8 | 0.00 | 1.47 | 0.00 | 88 | 1002.6 |
| 20260508094606 | 5 | 0 | 0.0 | 4.8 | 0.00 | 1.50 | 0.00 | 88 | 1002.5 |
| 20260508093051 | 5 | 0 | 0.0 | 4.8 | 0.00 | 1.50 | 0.00 | 88 | 1002.3 |
| 20260508091556 | 5 | 0 | 0.0 | 3.2 | 0.00 | 1.50 | 0.00 | 88 | 1002.3 |
| 20260508090054 | 5 | 327 | 1.6 | 6.4 | 0.00 | 1.50 | 0.00 | 88 | 1002.1 |
| 20260508084551 | 6 | 0 | 1.6 | 6.4 | 0.00 | 1.55 | 0.00 | 88 | 1002.3 |
| 20260508083056 | 6 | 0 | 0.0 | 1.6 | 0.00 | 1.55 | 0.00 | 88 | 1002.4 |
| 20260508081605 | 6 | 312 | 0.0 | 3.2 | 0.00 | 1.55 | 0.00 | 89 | 1002.4 |
| 20260508080052 | 6 | 312 | 1.6 | 4.8 | 0.00 | 1.55 | 0.00 | 88 | 1002.0 |
| 20260508074553 | 6 | 0 | 0.0 | 4.8 | 0.00 | 1.96 | 0.00 | 88 | 1002.0 |
| 20260508073056 | 6 | 0 | 0.0 | 6.4 | 0.00 | 1.96 | 0.00 | 88 | 1002.3 |
| 20260508071556 | 5 | 0 | 0.0 | 4.8 | 0.00 | 1.96 | 0.00 | 88 | 1002.4 |
| 20260508064552 | 5 | 0 | 0.0 | 4.8 | 0.00 | 2.29 | 0.00 | 88 | 1002.5 |
| 20260508063055 | 6 | 307 | 1.6 | 6.4 | 0.00 | 2.29 | 0.00 | 88 | 1002.4 |
| 20260508061556 | 6 | 305 | 1.6 | 4.8 | 0.00 | 2.29 | 0.00 | 88 | 1002.1 |
| 20260508060052 | 6 | 309 | 1.6 | 4.8 | 0.00 | 2.29 | 0.00 | 87 | 1002.3 |
| 20260508054557 | 6 | 325 | 1.6 | 9.7 | 0.00 | 2.29 | 0.00 | 88 | 1002.2 |
| 20260508053057 | 6 | 290 | 1.6 | 8.0 | 0.00 | 2.29 | 0.00 | 88 | 1002.5 |
| 20260508051550 | 6 | 0 | 0.0 | 0.0 | 0.00 | 2.29 | 0.00 | 88 | 1002.8 |
| 20260508050052 | 6 | 0 | 0.0 | 0.0 | 0.00 | 2.29 | 0.00 | 87 | 1002.5 |
| 20260508044605 | 7 | 0 | 0.0 | 0.0 | 0.00 | 2.29 | 0.00 | 87 | 1002.6 |
| 20260508043108 | 7 | 0 | 0.0 | 0.0 | 0.00 | 2.29 | 0.00 | 86 | 1002.9 |
| 20260508041557 | 7 | 0 | 0.0 | 0.0 | 0.00 | 2.29 | 0.00 | 86 | 1003.1 |
| 20260508040059 | 7 | 0 | 0.0 | 6.4 | 0.00 | 2.29 | 0.00 | 86 | 1003.1 |
| 20260508034557 | 8 | 0 | 0.0 | 0.0 | 0.00 | 2.29 | 0.00 | 85 | 1003.0 |
| 20260508033056 | 8 | 0 | 0.0 | 1.6 | 0.00 | 2.29 | 0.00 | 84 | 1002.8 |
| 20260508031551 | 9 | 0 | 0.0 | 0.0 | 0.00 | 2.29 | 0.00 | 83 | 1002.7 |
| 20260508030057 | 9 | 0 | 1.6 | 4.8 | 0.00 | 2.29 | 0.00 | 83 | 1002.9 |
| 20260508024550 | 10 | 0 | 0.0 | 1.6 | 0.00 | 2.29 | 2.29 | 83 | 1003.0 |
| 20260508023054 | 10 | 0 | 3.2 | 6.4 | 0.00 | 2.29 | 2.29 | 83 | 1003.1 |
| 20260508021551 | 10 | 0 | 3.2 | 11.3 | 0.00 | 2.29 | 2.29 | 83 | 1003.2 |
| 20260508020050 | 10 | 298 | 4.8 | 11.3 | 0.00 | 2.29 | 2.29 | 83 | 1003.5 |
| 20260508014551 | 10 | 273 | 6.4 | 14.5 | 0.00 | 2.29 | 2.29 | 84 | 1003.5 |
| 20260508013050 | 10 | 0 | 0.0 | 0.0 | 0.00 | 2.29 | 2.29 | 84 | 1003.6 |
| 20260508011549 | 10 | 0 | 0.0 | 0.0 | 0.00 | 2.29 | 2.29 | 83 | 1003.4 |
| 20260508010050 | 10 | 0 | 0.0 | 0.0 | 0.00 | 2.29 | 2.29 | 82 | 1003.4 |
| 20260508004553 | 11 | 0 | 0.0 | 4.8 | 0.00 | 2.29 | 2.29 | 80 | 1003.0 |
| 20260508003055 | 11 | 288 | 1.6 | 4.8 | 0.00 | 2.29 | 2.29 | 79 | 1002.5 |
| 20260508001550 | 11 | 0 | 3.2 | 6.4 | 0.00 | 2.29 | 2.29 | 78 | 1002.7 |
| 20260508000050 | 12 | 290 | 1.6 | 8.0 | 0.00 | 2.29 | 2.29 | 77 | 1002.5 |
| 20260507234559 | 12 | 302 | 3.2 | 6.4 | 0.00 | 2.29 | 2.29 | 77 | 1001.9 |
| 20260507233050 | 12 | 274 | 3.2 | 9.7 | 0.00 | 2.29 | 2.29 | 76 | 1002.3 |
| 20260507231553 | 13 | 273 | 3.2 | 9.7 | 0.00 | 2.29 | 2.29 | 74 | 1002.1 |
| 20260507230057 | 13 | 261 | 4.8 | 11.3 | 0.00 | 2.29 | 2.29 | 74 | 1001.8 |
| 20260507224551 | 14 | 294 | 4.8 | 12.9 | 0.00 | 2.29 | 2.29 | 74 | 1001.7 |
| 20260507223059 | 13 | 255 | 4.8 | 14.5 | 0.00 | 2.29 | 2.29 | 76 | 1001.9 |
| 20260507221555 | 13 | 269 | 4.8 | 11.3 | 0.00 | 2.29 | 2.29 | 77 | 1001.8 |
| 20260507220055 | 13 | 314 | 6.4 | 16.1 | 0.00 | 2.29 | 2.29 | 75 | 1001.9 |
| 20260507214559 | 14 | 244 | 9.7 | 24.1 | 0.00 | 2.29 | 2.29 | 74 | 1002.1 |
| 20260507213052 | 14 | 276 | 12.9 | 20.9 | 0.00 | 2.29 | 2.29 | 76 | 1002.0 |
| 20260507211552 | 15 | 280 | 11.3 | 22.5 | 0.00 | 2.29 | 2.29 | 75 | 1002.1 |
| 20260507210051 | 15 | 235 | 8.0 | 17.7 | 0.00 | 2.29 | 2.29 | 81 | 1001.7 |
| 20260507204551 | 14 | 272 | 9.7 | 20.9 | 0.00 | 2.29 | 2.29 | 83 | 1001.6 |
| 20260507203057 | 15 | 275 | 9.7 | 20.9 | 0.00 | 2.29 | 2.29 | 86 | 1001.6 |
| 20260507201550 | 14 | 285 | 12.9 | 24.1 | 0.00 | 2.29 | 2.29 | 87 | 1001.6 |
| 20260507200053 | 14 | 261 | 11.3 | 24.1 | 0.00 | 2.29 | 2.29 | 88 | 1001.7 |
| 20260507194550 | 13 | 228 | 11.3 | 22.5 | 0.00 | 2.29 | 2.29 | 90 | 1001.5 |
| 20260507193058 | 13 | 231 | 12.9 | 19.3 | 0.00 | 2.29 | 2.29 | 92 | 1001.5 |
| 20260507191549 | 13 | 200 | 3.2 | 14.5 | 0.00 | 2.29 | 2.29 | 92 | 1001.6 |
| 20260507190054 | 13 | 228 | 4.8 | 14.5 | 0.00 | 2.29 | 2.29 | 92 | 1001.8 |
| 20260507184555 | 13 | 166 | 3.2 | 11.3 | 0.00 | 2.29 | 2.29 | 92 | 1001.6 |
| 20260507183103 | 13 | 146 | 3.2 | 8.0 | 0.00 | 2.29 | 2.29 | 92 | 1001.5 |
| 20260507181551 | 12 | 0 | 1.6 | 9.7 | 0.00 | 2.29 | 2.29 | 92 | 1001.8 |
| 20260507180052 | 12 | 200 | 3.2 | 11.3 | 0.00 | 2.29 | 2.29 | 92 | 1002.2 |
| 20260507174604 | 11 | 187 | 1.6 | 16.1 | 0.08 | 2.29 | 2.29 | 92 | 1002.3 |
| 20260507173057 | 12 | 221 | 6.4 | 12.9 | 0.08 | 2.29 | 2.29 | 92 | 1002.3 |
| 20260507171608 | 12 | 136 | 1.6 | 11.3 | 0.20 | 2.29 | 2.29 | 92 | 1001.5 |
| 20260507170058 | 11 | 148 | 3.2 | 8.0 | 0.20 | 2.26 | 2.26 | 92 | 1002.0 |
| 20260507164603 | 11 | 171 | 1.6 | 6.4 | 0.15 | 2.21 | 2.21 | 91 | 1002.2 |
| 20260507163055 | 11 | 113 | 3.2 | 12.9 | 0.18 | 2.18 | 2.18 | 91 | 1002.0 |
| 20260507161600 | 11 | 145 | 4.8 | 11.3 | 0.18 | 2.06 | 2.06 | 91 | 1003.0 |
| 20260507160101 | 12 | 109 | 3.2 | 9.7 | 0.23 | 2.06 | 2.06 | 91 | 1002.6 |
| 20260507154554 | 12 | 159 | 1.6 | 8.0 | 0.33 | 2.06 | 2.06 | 91 | 1002.8 |
| 20260507153058 | 12 | 127 | 1.6 | 6.4 | 0.36 | 1.98 | 1.98 | 91 | 1003.0 |
| 20260507151557 | 11 | 188 | 1.6 | 4.8 | 0.71 | 1.88 | 1.88 | 91 | 1003.6 |
| 20260507150057 | 11 | 213 | 1.6 | 4.8 | 0.74 | 1.80 | 1.80 | 91 | 1003.7 |
| 20260507144556 | 11 | 146 | 1.6 | 9.7 | 0.84 | 1.70 | 1.70 | 91 | 1003.9 |
| 20260507143057 | 11 | 0 | 0.0 | 17.7 | 0.74 | 1.60 | 1.60 | 91 | 1004.2 |
| 20260507141557 | 11 | 202 | 1.6 | 4.8 | 0.36 | 1.17 | 1.17 | 91 | 1004.6 |
| 20260507140052 | 11 | 204 | 6.4 | 17.7 | 0.23 | 1.04 | 1.04 | 91 | 1003.8 |
| 20260507134556 | 11 | 209 | 4.8 | 19.3 | 0.05 | 0.86 | 0.86 | 91 | 1004.7 |
| 20260507133058 | 11 | 210 | 4.8 | 19.3 | 0.03 | 0.84 | 0.84 | 91 | 1004.2 |